Probability
0 0 0 0 0 0 0 0 0 0 0 0 0 0 0 0 0 0 0 0 0 0 0 0 0 0 0 0 0 0 0 0 0 0 0 0 0 0 0 0 0 0 0
0 0 0 0 0 0 0 0 0 0 0 0 0 0 0 0 0 0 0 0 0 0 0 0 0 0 0 0 0 0 0 0 0 0 0 0 0 0 0 0 0 0 0
0 0 0 0 0 0 0 0 0 0 0 0 0 0 0 0 0 0 0 0 0 0 0 0 0 0 0 0 0 0 0 0 0 0 0 0 0 0 0 0 0 0 0
0 0 0 0 0 0 0 0 0 0 0 0 0 0 0 0 0 0 0 0 0 0 0 0 0 0 0 0 0 0 0 0 0 0 0 0 0 0 0 0 0 0 0
0 0 0 0 0 0 0 0 0 0 0 0 0 0 0 0 0 0 0 0 0 0 0 0 0 0 0 0 0 0 0 0 0 0 0 0 0 0 0 0 0 0 0
0 0 0 0 0 0 0 0 0 0 0 0 0 0 0 0 0 0 0 0 0 0 0 0 0 0 0 0 0 0 0 0 0 0 0 0 0 0 0 0 0 0 0
0 0 0 0 0 0 0 0 0 0 0 0 0 0 0 0 0 0 0 0 0 0 0 0 0 0 0 0 0 0 0 0 0 0 0 0 0 0 0 0 0 0 0
0 0 0 0 0 0 0 0 0 0 0 0 0 0 0 0 0 0 0 0 0 0 0 0 0 0 0 0 0 0 0 0 0 0 0 0 0 0 0 0 0 0 0
0 0 0 0 0 0 0 0 0 0 0 0 0 0 0 0 0 0 0 0 0 0 0 0 0 0 0 0 0 0 0 0 0 0 0 0 0 0 0 0 0 0 0
0 0 0 0 0 0 0 0 0 0 0 0 0 0 0 0 0 0 0 0 0 0 0 0 0 0 0 0 0 0 0 0 0 0 0 0 0 0 0 0 0 0 0
0 0 0 0 0 0 0 0 0 0 0 0 0 0 0 0 0 0 0 0 0 0 0 0 0 0 0 0 0 0 0 0 0 0 0 0 0 0 0 0 0 0 0
0 0 0 0 0 0 0 0 0 0 0 0 0 0 0 0 0 0 0 0 0 0 0 0 0 0 0 0 0 0 0 0 0 0 0 0 0 0 0 0 0 0 0
0 0 0 0 0 0 0 0 0 0 0 0 0 0 0 0 0 0 0 0 0 0 0 0 0 0 0 0 0 0 0 0 0 0 0 0 0 0 0 0 0 0 0
0 0 0 0 0 0 0 0 0 0 0 0 0 0 0 0 0 0 0 0 0 0 0 0 0 0 0 0 0 0 0 0 0 0 0 0 0 0 0 0 0 0 0
0 0 0 0 0 0 0 0 0 0 0 0 0 0 0 0 0 0 0 0 0 0 0 0 0 0 0 0 0 0 0 0 0 0 0 0 0 0 0 0 0 0 0
0 0 0 0 0 0 0 0 0 0 0 0 0 0 0 0 0 0 0 0 0 0 0 0 0 0 0 0 0 0 0 0 0 0 0 0 0 0 0 0 0 0 0
0 0 0 0 0 0 0 0 0 0 0 0 0 0 0 0 0 0 0 0 0 0 0 0 0 0 0 0 0 0 0 0 0 0 0 0 0 0 0 0 0 0 0
0 0 0 0 0 0 0 0 0 0 0 0 0 0 0 0 0 0 0 0 0 0 0 0 0 0 0 0 0 0 0 0 0 0 0 0 0 0 0 0 0 0 0
0 0 0 0 0 0 0 0 0 0 0 0 0 0 0 0 0 0 0 0 0 0 0 0 0 0 0 0 0 0 0 0 0 0 0 0 0 0 0 0 0 0 0
0 0 0 0 0 0 0 0 0 0 0 0 0 0 0 0 0 0 0 0 0 0 0 0 0 0 0 0 0 0 0 0 0 0 0 0 0 0 0 0 0 0 0
0 0 0 0 0 0 0 0 0 0 0 0 0 0 0 0 0 0 0 0 0 0 0 0 0 0 0 0 0 0 0 0 0 0 0 0 0 0 0 0 0 0 0
0 0 0 0 0 0 0 0 0 0 0 0 0 0 0 0 0 0 0 0 0 0 0 0 0 0 0 0 0 0 0 0 0 0 0 0 0 0 0 0 0 0 0
0 0 0 0 0 0 0 0 0 0 0 0 0 0 0 0 0 0 0 0 0 0 0 0 0 0 0 0 0 0 0 0 0 0 0 0 0 0 0 0 0 0 0
0 0 0 0 0 0 0 0 0 0 0 0 0 0 0 0 0 0 0 0 0 0 0 0 0 0 0 0 0 0 0 0 0 0 0 0 0 0 0 0 0 0 0
0 0 0 0 0 0 0 0 0 0 0 0 0 0 0 0 0 0 0 0 0 0 0 0 0 0 0 0 0 0 0 0 0 0 0 0 0 0 0 0 0 0 0
0 0 0 0 0 0 0 0 0 0 0 0 0 0 0 0 0 0 0 0 0 0 0 0 0 0 0 0 0 0 0 0 0 0 0 0 0 0 0 0 0 0 0
Height
5788 5784 5779 5775 5771 5767 5764 5760 5758 5755 5752 5750 5749 5748 5748 5748 5749 5751 5753 5756 5759 5763 5767 5770 5774 5779 5784 5788 5793 5797 5801 5806 5811 5815 5820 5824 5828 5832 5835 5837 5839 5841 5842
5789 5785 5780 5776 5772 5768 5764 5761 5758 5755 5752 5750 5748 5746 5745 5745 5745 5746 5747 5749 5752 5755 5758 5762 5765 5770 5774 5779 5783 5787 5792 5797 5801 5806 5811 5815 5820 5823 5827 5830 5832 5834 5835
5791 5786 5781 5777 5773 5769 5765 5761 5758 5755 5752 5749 5747 5745 5743 5743 5742 5742 5742 5744 5746 5748 5751 5754 5757 5761 5765 5769 5773 5777 5782 5787 5792 5797 5802 5807 5811 5815 5819 5822 5825 5827 5829
5792 5787 5782 5778 5774 5769 5765 5762 5758 5755 5751 5749 5746 5744 5742 5740 5739 5738 5738 5739 5740 5742 5744 5746 5750 5753 5756 5760 5764 5769 5774 5779 5784 5789 5794 5798 5803 5807 5811 5814 5817 5820 5821
5794 5789 5784 5779 5775 5770 5766 5762 5758 5754 5751 5747 5744 5742 5739 5737 5736 5735 5734 5734 5734 5736 5737 5739 5742 5745 5749 5753 5757 5762 5767 5771 5776 5780 5786 5791 5795 5800 5804 5807 5810 5812 5814
5795 5790 5785 5780 5776 5771 5766 5762 5758 5754 5750 5746 5742 5739 5736 5734 5732 5730 5729 5729 5729 5730 5731 5733 5735 5738 5742 5746 5750 5754 5759 5764 5768 5773 5778 5783 5787 5792 5795 5798 5802 5804 5807
5797 5792 5787 5782 5777 5771 5767 5762 5757 5753 5748 5744 5740 5736 5733 5729 5727 5725 5723 5723 5723 5723 5725 5726 5729 5732 5735 5739 5743 5747 5751 5756 5761 5766 5770 5775 5779 5784 5787 5790 5793 5796 5799
5799 5794 5788 5783 5778 5773 5767 5762 5757 5752 5747 5742 5738 5733 5729 5725 5721 5719 5717 5716 5716 5717 5718 5720 5723 5726 5729 5733 5737 5741 5745 5749 5754 5758 5763 5767 5771 5776 5779 5783 5785 5788 5791
5801 5796 5790 5785 5779 5774 5768 5763 5758 5752 5747 5741 5736 5730 5725 5720 5716 5713 5710 5709 5709 5710 5712 5714 5717 5720 5723 5727 5731 5735 5739 5743 5747 5751 5756 5760 5764 5769 5772 5776 5779 5782 5785
5803 5798 5792 5787 5781 5775 5770 5764 5758 5753 5747 5741 5734 5728 5722 5716 5711 5707 5704 5702 5702 5703 5705 5708 5712 5715 5719 5722 5727 5731 5734 5738 5742 5746 5750 5754 5758 5762 5766 5770 5773 5777 5779
5805 5800 5794 5789 5783 5777 5771 5766 5760 5754 5747 5741 5734 5727 5720 5714 5708 5703 5699 5697 5696 5698 5700 5704 5708 5712 5716 5719 5723 5727 5731 5735 5738 5742 5746 5750 5753 5757 5761 5765 5768 5772 5775
5806 5802 5796 5791 5786 5780 5774 5768 5761 5755 5749 5742 5736 5729 5721 5715 5708 5702 5697 5694 5693 5695 5698 5701 5705 5710 5714 5717 5721 5724 5728 5732 5736 5739 5743 5746 5750 5754 5757 5761 5764 5767 5771
5808 5803 5798 5793 5788 5782 5776 5770 5764 5757 5751 5745 5738 5731 5724 5718 5711 5705 5700 5696 5694 5696 5698 5702 5706 5710 5713 5717 5720 5724 5727 5731 5734 5738 5741 5744 5748 5751 5755 5758 5761 5764 5767
5808 5804 5800 5795 5790 5785 5779 5773 5767 5760 5754 5748 5742 5735 5729 5722 5716 5711 5706 5702 5700 5700 5702 5705 5708 5711 5714 5718 5721 5724 5728 5731 5734 5737 5740 5743 5746 5749 5753 5756 5759 5762 5765
5809 5805 5801 5796 5792 5787 5782 5776 5770 5764 5758 5752 5746 5740 5734 5728 5723 5718 5713 5710 5708 5707 5708 5710 5712 5715 5717 5720 5723 5726 5729 5732 5735 5737 5741 5743 5746 5749 5752 5755 5758 5761 5764
5808 5804 5801 5797 5793 5789 5784 5779 5774 5768 5762 5756 5751 5745 5740 5734 5729 5725 5721 5718 5716 5715 5715 5716 5717 5719 5721 5723 5726 5728 5731 5734 5736 5739 5741 5744 5747 5750 5752 5755 5758 5761 5764
5806 5803 5800 5797 5793 5789 5785 5781 5776 5772 5766 5761 5755 5750 5745 5741 5736 5732 5729 5726 5724 5723 5723 5723 5724 5725 5726 5728 5730 5732 5735 5737 5739 5741 5744 5746 5748 5751 5753 5756 5758 5761 5763
5804 5801 5798 5795 5792 5789 5786 5782 5778 5774 5770 5765 5760 5755 5751 5747 5743 5739 5736 5734 5732 5730 5730 5729 5730 5730 5731 5733 5734 5736 5738 5740 5742 5744 5746 5748 5750 5752 5754 5757 5759 5761 5763
5801 5798 5796 5793 5791 5788 5785 5782 5779 5776 5772 5768 5764 5760 5756 5752 5749 5745 5742 5740 5738 5737 5736 5735 5735 5736 5736 5737 5738 5740 5741 5743 5744 5746 5747 5749 5751 5753 5755 5757 5759 5761 5763
5796 5794 5792 5790 5788 5786 5783 5781 5778 5776 5773 5770 5767 5763 5760 5756 5753 5750 5748 5745 5744 5742 5741 5740 5740 5740 5741 5741 5742 5743 5744 5745 5746 5748 5749 5751 5752 5754 5756 5758 5760 5762 5764
5791 5789 5787 5786 5784 5782 5780 5778 5776 5774 5772 5770 5768 5765 5762 5759 5757 5754 5752 5750 5748 5747 5746 5745 5744 5744 5744 5745 5745 5746 5747 5748 5748 5750 5751 5752 5754 5755 5757 5759 5761 5762 5764
5785 5783 5782 5780 5779 5777 5776 5775 5773 5772 5770 5768 5767 5765 5763 5761 5759 5757 5754 5753 5751 5750 5749 5749 5748 5748 5748 5748 5748 5748 5749 5750 5751 5752 5753 5754 5755 5757 5758 5759 5761 5762 5764
5777 5776 5775 5774 5773 5772 5771 5770 5769 5767 5766 5765 5764 5763 5762 5760 5759 5757 5756 5754 5753 5752 5751 5751 5750 5750 5750 5750 5750 5750 5751 5751 5752 5753 5754 5755 5756 5757 5758 5759 5760 5761 5763
5768 5768 5767 5766 5766 5765 5764 5764 5763 5762 5762 5761 5760 5760 5759 5758 5757 5756 5755 5754 5753 5752 5752 5751 5751 5751 5751 5751 5751 5751 5752 5752 5753 5753 5754 5755 5756 5757 5758 5758 5759 5760 5761
5757 5758 5758 5758 5757 5757 5757 5756 5756 5756 5755 5755 5755 5755 5754 5754 5753 5753 5753 5752 5752 5751 5751 5750 5750 5750 5750 5750 5750 5751 5751 5752 5752 5753 5753 5754 5755 5755 5756 5756 5757 5757 5758
5745 5746 5747 5747 5747 5747 5747 5748 5748 5748 5748 5748 5748 5748 5748 5748 5748 5748 5748 5748 5748 5748 5748 5748 5748 5748 5748 5748 5748 5749 5749 5749 5750 5750 5751 5751 5752 5752 5753 5753 5753 5754 5754
Wind_Speed
21 21 20 18 17 16 14 12 11 10 9 7 7 9 12 16 19 23 29 34 36 38 40 40 39 41 40 40 41 40 40 40 39 39 38 36 34 32 31 30 30 29 29
21 21 20 19 18 17 16 14 12 11 10 9 7 7 7 11 15 19 22 27 31 34 37 38 38 38 39 39 40 41 41 41 40 39 39 36 34 32 31 31 30 30 29
22 22 21 20 19 18 17 15 14 12 11 10 9 8 7 8 10 13 17 21 25 29 32 34 35 36 37 36 35 36 38 39 39 39 37 36 34 33 32 31 29 28 28
23 22 22 21 20 19 18 16 15 14 13 11 10 9 8 9 10 11 14 17 20 24 26 29 31 33 33 33 33 33 33 34 35 35 35 34 34 33 32 31 30 29 28
23 23 23 22 21 20 19 17 16 16 15 14 12 11 10 10 10 12 13 16 18 20 23 25 28 30 31 31 32 33 33 34 34 34 35 35 35 34 33 32 31 30 29
24 24 23 23 23 21 20 18 18 17 17 16 15 14 13 12 12 13 14 16 17 20 21 22 25 26 27 29 31 32 33 33 34 34 35 35 35 35 34 34 32 31 30
25 25 25 25 24 23 22 20 19 19 19 18 17 15 15 14 14 14 14 16 17 19 20 21 22 24 26 27 28 29 29 31 32 33 32 33 34 35 35 34 33 32 30
25 26 26 26 26 25 23 22 22 22 21 20 19 18 17 16 15 15 15 16 17 18 20 21 21 22 23 24 26 26 26 27 28 29 30 31 33 33 32 32 31 30 29
25 27 28 28 27 26 25 24 24 24 23 23 22 21 19 18 16 15 15 15 16 17 18 20 20 20 21 21 22 24 25 25 27 28 28 29 29 29 29 28 28 27 26
25 27 28 28 29 28 27 26 25 25 25 25 25 24 22 20 17 15 13 12 13 15 16 17 18 19 20 20 20 21 21 22 23 24 25 25 26 26 26 25 25 25 24
23 25 27 28 29 29 28 27 27 26 26 26 27 26 24 21 19 15 11 8 8 11 14 15 17 17 18 19 19 20 20 20 21 21 21 22 23 23 23 24 24 24 23
22 23 25 27 28 29 29 28 28 27 27 27 28 27 26 23 21 17 12 6 2 7 12 14 16 16 17 17 17 18 19 19 19 19 19 20 22 22 22 23 23 23 22
21 22 23 25 27 28 29 29 28 28 27 27 28 28 27 25 23 20 16 11 7 8 11 14 15 16 16 15 16 17 18 17 18 18 18 18 19 20 21 21 21 20 19
19 20 21 23 25 26 27 28 28 28 27 27 28 28 27 26 24 22 19 16 14 12 13 14 14 15 15 15 15 16 16 16 17 18 18 18 18 19 19 20 20 19 18
18 18 19 20 21 23 25 26 27 28 27 27 27 27 27 26 25 23 20 18 17 14 13 14 14 15 15 15 16 16 15 15 16 17 16 16 17 18 19 19 18 17 17
17 17 18 18 19 20 21 23 24 26 26 25 25 26 26 25 24 23 21 19 18 17 16 15 15 15 15 15 16 16 16 14 14 14 14 15 15 15 16 17 17 16 15
16 16 16 17 17 17 18 20 21 22 24 24 24 23 24 24 23 22 21 19 18 17 17 16 16 15 15 16 16 16 15 14 13 14 13 13 13 13 13 14 14 14 14
16 16 16 15 16 16 16 16 17 18 20 21 22 21 21 21 21 20 19 18 16 16 16 15 15 15 15 16 15 14 13 12 12 13 13 13 13 13 13 13 13 13 13
17 16 16 15 15 14 14 14 14 15 16 17 18 19 19 18 18 18 18 17 16 15 14 14 14 14 14 14 13 12 12 12 11 11 11 11 12 12 12 12 12 12 12
19 17 17 16 15 14 14 13 13 12 12 13 14 15 15 15 15 15 15 15 15 14 13 12 12 12 11 11 11 11 11 11 11 11 11 11 11 11 12 12 12 12 12
21 20 19 17 16 15 14 14 13 12 10 9 9 10 11 11 12 11 11 12 12 11 11 11 10 10 9 9 9 9 9 9 10 10 11 10 10 11 11 11 11 11 11
25 23 22 20 19 17 16 15 14 13 11 10 8 7 7 7 7 8 8 8 8 8 8 8 8 8 8 8 8 8 9 9 10 10 10 10 10 10 10 10 10 9 9
29 27 26 24 22 20 19 18 16 15 14 12 10 9 7 5 4 3 4 4 5 5 5 6 6 6 6 7 7 7 7 8 8 9 9 9 9 9 9 9 9 9 9
33 31 30 28 26 24 22 21 19 18 17 15 14 12 10 9 7 5 3 2 0 1 2 3 3 4 4 5 5 6 6 7 7 8 8 9 9 9 10 10 10 10 10
37 35 33 32 30 28 26 24 23 21 20 19 18 16 15 13 12 10 9 7 6 5 4 4 4 4 4 5 5 6 7 7 8 8 9 10 10 11 11 11 12 12 13
41 39 37 36 34 32 30 29 27 25 24 22 21 20 19 17 16 15 14 12 11 10 10 9 9 8 8 8 8 9 9 10 10 11 11 12 13 13 14 14 15 16 16
Wind_Direction
18 19 19 17 15 14 12 7 0 358 353 334 298 270 254 246 243 240 237 235 233 232 232 233 231 230 230 231 229 229 228 227 227 228 228 228 230 232 234 238 243 247 251
18 17 16 16 15 13 12 10 6 360 356 350 334 308 281 259 250 245 241 238 238 237 237 237 235 233 230 228 228 227 226 227 226 227 227 227 228 231 235 238 243 248 251
16 15 14 13 12 11 11 10 6 2 357 350 339 323 299 277 262 250 244 240 239 239 241 240 239 236 233 230 229 227 225 226 226 226 227 227 229 232 235 238 243 247 251
16 15 14 12 10 8 7 6 4 1 356 351 343 329 311 292 275 260 250 244 240 239 239 238 239 238 236 235 233 231 229 228 227 226 227 229 232 234 237 240 244 248 251
18 17 16 14 12 10 8 5 1 357 352 347 339 330 318 304 287 271 260 253 246 241 238 236 236 237 236 235 233 231 232 232 232 230 230 232 235 237 239 242 245 248 251
19 19 17 15 13 11 8 5 2 358 353 347 340 331 320 308 295 281 268 258 251 245 242 238 235 234 234 235 234 233 233 233 233 233 233 234 236 238 241 243 246 248 250
20 19 18 17 15 13 11 8 5 1 356 351 344 335 325 313 301 289 277 265 254 247 243 240 236 233 231 231 231 231 231 232 233 233 233 235 236 238 240 242 244 246 247
19 19 19 17 16 15 13 11 8 3 360 356 350 341 332 321 309 295 283 271 258 248 241 237 235 231 228 227 227 227 227 228 230 230 230 231 232 234 237 239 240 241 242
19 19 19 18 17 15 14 12 10 7 4 360 355 349 343 334 322 306 288 272 259 246 237 232 229 226 222 220 220 220 221 223 224 225 227 228 229 229 230 233 235 236 238
17 18 18 18 17 17 15 13 11 9 7 4 1 357 352 345 336 323 303 279 259 243 231 222 219 217 215 214 213 213 213 215 216 217 219 219 219 219 221 223 227 230 232
14 16 17 17 16 16 15 15 14 12 11 9 8 5 2 358 352 343 328 296 256 232 216 209 206 204 203 203 203 204 205 207 208 210 211 211 210 211 214 216 218 222 225
11 13 14 15 15 16 16 16 16 16 14 13 13 12 12 12 10 9 6 357 242 194 189 189 189 189 190 193 195 195 196 197 199 200 201 203 204 206 208 210 211 215 219
6 7 9 11 13 14 15 16 17 18 17 17 18 18 19 21 22 25 32 45 81 135 157 165 170 173 176 179 179 182 185 187 189 191 193 194 196 198 201 202 202 206 211
356 360 3 6 8 11 14 16 18 19 20 20 21 22 25 28 32 38 47 60 79 105 128 144 152 157 160 163 165 169 173 177 182 183 183 185 185 188 189 190 192 196 199
344 350 355 359 3 7 11 14 17 19 21 23 25 26 29 33 38 45 54 65 76 92 111 124 135 144 147 150 155 160 164 169 173 177 178 180 181 182 183 185 187 190 192
333 338 344 350 356 1 5 10 15 18 21 24 27 30 33 37 42 49 57 67 75 87 103 114 125 132 136 140 149 155 155 155 158 163 166 170 174 176 177 179 181 183 185
323 327 333 340 346 352 358 5 11 16 20 24 28 32 36 40 45 51 57 66 76 86 97 109 118 124 130 134 139 144 147 149 150 154 158 163 167 170 171 173 177 182 185
313 317 321 327 334 340 347 356 4 10 16 21 27 32 37 41 46 52 58 65 75 85 94 103 114 122 127 131 136 140 146 150 152 155 159 163 165 166 168 171 173 176 180
302 306 309 313 318 325 333 341 350 0 8 16 23 30 36 42 48 53 58 65 73 83 93 102 111 120 126 131 135 139 144 149 152 155 158 162 163 165 166 168 170 173 176
290 293 297 300 303 309 316 323 331 342 353 4 15 24 32 40 47 53 59 65 72 80 90 100 109 117 125 133 139 142 146 149 153 155 157 160 163 166 168 169 171 173 177
281 282 285 288 291 294 298 304 311 319 328 340 356 9 21 32 43 52 59 66 72 80 88 96 105 115 123 131 139 145 150 152 153 154 155 158 161 164 167 170 173 178 183
276 276 276 277 279 282 284 287 292 297 303 309 318 335 354 12 30 44 56 67 74 82 90 99 108 116 125 135 141 145 149 152 156 159 162 164 167 171 174 178 182 188 195
273 272 272 271 271 272 273 275 277 279 282 285 289 292 300 315 340 10 37 58 74 86 95 104 115 126 134 141 147 153 158 162 167 172 175 178 181 186 191 196 201 206 212
270 270 269 268 268 267 267 267 267 268 269 271 272 273 273 274 275 278 282 285 298 115 125 133 138 146 155 164 171 177 181 185 188 192 197 200 204 207 211 215 220 225 230
267 267 266 266 265 264 264 263 262 262 262 263 263 263 263 263 262 261 259 258 254 248 239 229 220 213 209 207 207 209 211 214 216 219 221 223 225 227 230 233 236 240 245
264 264 264 263 262 262 261 261 260 259 258 258 258 259 259 258 258 257 256 256 254 253 250 247 244 241 239 237 236 235 235 237 238 240 241 240 241 242 244 247 250 253 256